Regional Weather Roundup
Issued by NWS Boston, MA

Home | Current Version | Previous Version | Text Only | Print | Product List | Glossary On
Versions: 1 2 3 4 5 6 7 8 9 10 11 12 13 14 15 16 17 18 19 20 21 22 23 24 25 26 27 28 29 30 31 32 33 34 35 36 37 38 39 40 41 42 43 44 45 46 47 48 49 50
000
ASUS41 KBOX 011210
RWRBOX

REGIONAL WEATHER ROUNDUP
NATIONAL WEATHER SERVICE TAUNTON MA
800 AM EDT WED OCT 01 2014

NOTE:  "FAIR" INDICATES FEW OR NO CLOUDS BELOW 12,000 FEET WITH NO
SIGNIFICANT WEATHER AND/OR OBSTRUCTIONS TO VISIBILITY.  THE FOLLOWING
OBSERVATION LOCATIONS DO NOT REPORT PRESENT WEATHER...PROVINCETOWN...
SMITHFIELD...BLOCK ISLAND...KEENE...AND OXFORD.

MAZALL-011300-
EASTERN MASSACHUSETTS

CITY           SKY/WX    TMP DP  RH WIND       PRES   REMARKS
BOSTON         CLOUDY    57  56  96 N16       30.05R FOG
6HR MIN TEMP:  57; 6HR MAX TEMP:  57; 6HR PCP: TRACE;

BEVERLY        CLOUDY    57  55  93 NE9       30.05S FOG
LAWRENCE       CLOUDY    56  54  93 N8        30.09R
BEDFORD        CLOUDY    56  55  97 NE13      30.05R
BLUE HILL        N/A     55  55 100 NE12G23   30.03S
NORWOOD        CLOUDY    58  56  93 NE8       30.04R FOG
MARSHFIELD     NOT AVBL
PLYMOUTH       LGT RAIN  58  58 100 N12       30.02S FOG
TAUNTON        LGT RAIN  58  57  97 VRB7      30.02R FOG
NEW BEDFORD    LGT RAIN  59  58  96 N6        29.99S
$$

MAZALL-011300-
CAPE COD AND THE ISLANDS

CITY           SKY/WX    TMP DP  RH WIND       PRES   REMARKS
FALMOUTH       RAIN      61  61 100 NE9G16    29.99S
HYANNIS        LGT RAIN  63  61  93 NE9       29.98R FOG
CHATHAM        LGT RAIN  62  61  96 NE13G22   30.00R FOG
PROVINCETOWN   CLOUDY    61  57  88 NE14      30.02R
NANTUCKET      CLOUDY    63  61  93 NE15      29.96S
MARTHAS VNYRD  LGT RAIN  62  61  96 N10       29.98R
$$

MAZALL-011300-
CENTRAL AND WESTERN MASSACHUSETTS

CITY           SKY/WX    TMP DP  RH WIND       PRES   REMARKS
WORCESTER      LGT RAIN  54  53  97 N12       30.05R
6HR MIN TEMP:  54; 6HR MAX TEMP:  54; 6HR PCP:  0.12;

FITCHBURG      HVY RAIN  57  54  89 N6        30.07S FOG
ORANGE         CLOUDY    57  54  89 N6        30.06R
SPRINGFIELD    LGT RAIN  58  56  95 N7        30.05R FOG
WESTFIELD      LGT RAIN  58  56  93 N8        30.05R FOG
NORTH ADAMS    CLOUDY    57  56  96 CALM      30.07R FOG
PITTSFIELD     LGT RAIN  56  54  93 NE3       30.06R FOG
$$

RIZALL-011300-
RHODE ISLAND

CITY           SKY/WX    TMP DP  RH WIND       PRES   REMARKS
PROVIDENCE     CLOUDY    58  56  93 N9G20     30.03R
6HR MIN TEMP:  57; 6HR MAX TEMP:  58; 6HR PCP: TRACE;

NEWPORT        CLOUDY    59  57  93 N12       30.00R
BLOCK ISLAND   CLOUDY    61  55  82 NE13G18   30.00S
SMITHFIELD     CLOUDY    55  48  76 N13       30.03R VSB 1/2
WESTERLY       CLOUDY    58  57  97 N7        30.02R
$$

CTZALL-011300-
CONNECTICUT

CITY           SKY/WX    TMP DP  RH WIND       PRES   REMARKS
BRADLEY INTL   LGT RAIN  59  56  89 N7        30.04R FOG
6HR MIN TEMP:  59; 6HR MAX TEMP:  59; 6HR PCP:  0.14;

HARTFORD       HVY RAIN  58  56  93 N10       30.04R FOG
BRIDGEPORT     CLOUDY    60  58  92 N10       30.02R
DANBURY        LGT RAIN  58  56  93 NE5       30.05R
GROTON         CLOUDY    57  56  96 N8        30.01R
NEW HAVEN      LGT RAIN  61  57  87 N10       30.02R
CHESTER        NOT AVBL
MERIDEN        LGT RAIN  59  56  89 N6        30.04R
WILLIMANTIC    LGT RAIN  58  55  90 N5        30.04R
OXFORD         LGT RAIN  57  52  82 NE7       30.05R FOG
$$

MEZ002-015-021-024-NHZ003-005-008-011-012-014-VTZ005-008-011300-
NORTHERN NEW ENGLAND

CITY           SKY/WX    TMP DP  RH WIND       PRES   REMARKS
PORTLAND ME    LGT RAIN  56  52  86 N12       30.11R
6HR MIN TEMP:  56; 6HR MAX TEMP:  57; 6HR PCP:  0.01;

BANGOR ME      CLOUDY    54  49  83 N9        30.15R
CONCORD NH     CLOUDY    57  53  86 N7        30.09R
MANCHESTER NH  CLOUDY    58  53  84 N9        30.07R
NASHUA NH      CLOUDY    57  56  97 CALM      30.08R
PORTSMOUTH NH  CLOUDY    56  53  89 N7        30.07R
JAFFREY NH     LGT RAIN  54  53  97 VRB6      30.09R FOG
KEENE NH       CLOUDY    55  48  76 CALM      30.09R
BURLINGTON VT  CLOUDY    53  51  93 N7        30.13R FOG
MT. WASHINGTON CLOUDY    43  39  87 E17         N/A
$$

NYZ052-076-011300-
EASTERN NEW YORK

CITY           SKY/WX    TMP DP  RH WIND       PRES   REMARKS
ALBANY         CLOUDY    61  57  87 CALM      30.07R
6HR MIN TEMP:  59; 6HR MAX TEMP:  61; 6HR PCP: TRACE;

NEW YORK CITY  LGT RAIN  61  58  90 N10       30.02R
6HR MIN TEMP:  61; 6HR MAX TEMP:  62; 6HR PCP: TRACE;

$$

ANZALL-011300-
MARINE OBSERVATIONS

STATION/POSITION TIME  TEMP    WIND        PRES    VSBY  WAVE
                       AIR SEA DIR/SP/G                  HT/PER
                 (UTC) (F)     (DEG/KT/KT) (MB)    (MI)  (FT/S)
BOSTON BUOY      1150   57 60   30/ 19/ 23 1016.8R         5/ 6
BUZZARDS BAY     1100           10/ 21/ 22 1015.4S
NANTUCKET SOUND  1150   63 65   30/ 16/ 19 1014.6R         2/ 4
MASS BAY-STELLWA 1104   58 60   30/ 17/ 19   N/A    1 1/4  5/ 5
ISLE OF SHOALS   1200   57      30/ 24/ 26 1017.5R
S OF BLOCK IS    1108      67                N/A           4/ 5
$$

......................KEY.........................
  SKY/WX - SKY CONDITION/PRESENT WEATHER
  TMP    - TEMPERATURE IN FAHRENHEIT
  DWPT   - DEWPOINT IN FAHRENHEIT
  RH     - RELATIVE HUMIDITY IN PERCENT
  WIND   - DIRECTION AND SPEED IN MPH
  PRES   - MEAN SEA LEVEL PRESSURE IN INCHES OF HG
  WCI    - WIND CHILL INDEX
  VSB    - VISIBILITY IN MILES
  HX     - HEAT INDEX
  TC     - TEMPERATURE IN CELSIUS
  VRB    - VARIABLE WIND DIRECTION
  N/A    - NOT AVAILABLE


USA.gov is the U.S. government's official web portal to all federal, state and local government web resources and services.